Location: Rometta
(44.2000°N, 10.0500°E)
Time: 16:08:59
(UTC+00:00)

Cosmos 1455 - Pass Details

Date: 20 January 2021
Orbit: 499 x 520 km, 82.5° (Epoch: 28 February)

Event Time Altitude Azimuth Distance (km) Brightness Sun altitude
Rises 17:21:02 0° 0° (N) 2,628 5.6 -12.0°
Reaches altitude 10° 17:23:20 10° 11° (N) 1,741 4.6 -12.4°
Maximum altitude 17:26:47 32° 76° (ENE) 909 2.9 -13.0°
Drops below altitude 10° 17:30:13 10° 140° (SE) 1,739 4.6 -13.6°
Sets 17:32:30 0° 151° (SSE) 2,624 5.6 -14.0°
